Starlink 36342

operational
NORAD ID: 67649 Int'l Des: 2026-022 Owner: SPXS Country: US Constellation: starlink
LEOCIRCULARRETROGRADE

About Starlink 36342

Description loading...

Live Position

Loading 3D Globe...

Upcoming Passes

Altitude History

Altitude vs Time

uPlot chart will show altitude changes over time

Two-Line Element Set

1 67649U 26022B 26066.18439678 .00231636 00000-0 15097-2 0 9995
2 67649 97.2833 100.0243 0002720 116.3615 243.7930 15.75225278 5153
Epoch: Mar 7, 2026 • Age: 15 hours

Current Status

Altitude 354.7 km
Velocity 7.70 km/s
Sub-Earth Point 74.22°N, 37.15°E
Launch Date Feb 2, 2026
Age 32 days
Type internet

Technical Details

Classification Payload
Mass 575.00 kg
Dry Mass 530.00 kg
Total Mass 575.00 kg
Length 0.30 m
Diameter 4.10 m
Span 29.00 m
Shape Box + pan
Manufacturer SPXS
Bus Type Starlink V2MO
Phase Status In Orbit
Owner/State SPXS/US

Large Constellations

Loading constellations...